Date String (YYYY-MM-DD hh:mm:ss) UTC,Instrument flags,absolute air pressure of the measurement (hPa),sample flow rate (lpm),inlet stack bypass flow (lpm),air temperature of the measurement (°C),ambient temperature measured by the external sensor (°C),aerosol sample conditioner tube jacket temperature (°C),OPC LED temperature (°C),internal box temperature (°C),relative humidity of the measurement (%),span deviation,mass concentration of particles derived from Lorenz-Mie calculation of OPC scattering (μg/m³),mass concentration of particles derived from Lorenz-Mie calculation of OPC scattering (μg/m³),mass concentration of particles derived from Lorenz-Mie calculation of OPC scattering (μg/m³)
DateTimeUTC,F1_M11,P_M11,Q1_M11,Q2_M11,T1_M11,T2_M11,T3_M11,T4_M11,T5_M11,U1_M11,ZSPAN_M11,X0_M11,X2_M11,X1_M11
2023-11-11 17:00:00,SystemResetWarning,0831.5,4.99,000.00,023.9,023.2,000.0,032.0,025.4,8.2,0000.0,0008.52,0003.33,0002.56
2023-11-11 17:01:00,SystemResetWarning,0831.4,4.99,000.00,023.9,023.2,000.0,032.0,025.4,8.1,0000.0,0008.86,0003.35,0002.54
2023-11-11 17:02:00,SystemResetWarning,0831.4,4.99,000.00,023.9,023.2,000.0,032.1,025.4,8.3,0000.0,0009.13,0003.36,0002.54
2023-11-11 17:03:00,SystemResetWarning,0831.4,5.00,000.00,023.9,023.2,000.0,032.1,025.4,8.0,0000.0,0009.10,0003.36,0002.56
2023-11-11 17:04:00,SystemResetWarning,0831.4,5.00,000.00,023.9,023.2,000.0,032.1,025.4,8.1,0000.0,0009.17,0003.36,0002.60
2023-11-11 17:05:00,SystemResetWarning,0831.4,5.01,000.00,023.9,023.2,000.0,032.1,025.5,8.3,0000.0,0009.34,0003.38,0002.63
2023-11-11 17:06:00,SystemResetWarning,0831.4,5.01,000.00,024.0,023.2,000.0,032.1,025.5,8.3,0000.0,0009.17,0003.35,0002.65
2023-11-11 17:07:00,SystemResetWarning,0831.4,5.00,000.00,024.0,023.3,000.0,032.1,025.5,8.5,0000.0,0008.79,0003.34,0002.65
2023-11-11 17:08:00,SystemResetWarning,0831.4,5.00,000.00,024.0,023.3,000.0,032.1,025.5,8.9,0000.0,0009.13,0003.32,0002.62
2023-11-11 17:09:00,SystemResetWarning,0831.4,5.00,000.00,024.0,023.3,000.0,032.2,025.5,9.2,0000.0,0008.62,0003.30,0002.60
2023-11-11 17:10:00,SystemResetWarning,0831.5,4.99,000.00,024.0,023.3,000.0,032.2,025.5,9.5,0000.0,0008.75,0003.32,0002.64
2023-11-11 17:11:00,SystemResetWarning,0831.4,5.01,000.00,024.0,023.3,000.0,032.2,025.5,10.0,0000.0,0008.78,0003.36,0002.69
2023-11-11 17:12:00,SystemResetWarning,0831.4,5.01,000.00,024.0,023.3,000.0,032.2,025.5,9.9,0000.0,0008.99,0003.39,0002.73
2023-11-11 17:13:00,SystemResetWarning,0831.5,5.01,000.00,024.0,023.3,000.0,032.2,025.5,10.4,0000.0,0008.94,0003.42,0002.77
2023-11-11 17:14:00,SystemResetWarning,0831.5,4.99,000.00,024.0,023.3,000.0,032.2,025.5,10.4,0000.0,0009.46,0003.46,0002.82
2023-11-11 17:15:00,SystemResetWarning,0831.5,4.99,000.00,024.0,023.3,000.0,032.2,025.5,10.3,0000.0,0010.93,0003.54,0002.88
2023-11-11 17:16:00,SystemResetWarning,0831.5,4.99,000.00,024.0,023.3,000.0,032.2,025.5,10.2,0000.0,0010.95,0003.60,0002.98
2023-11-11 17:17:00,SystemResetWarning,0831.5,5.01,000.00,024.0,023.3,000.0,032.3,025.5,10.1,0000.0,0011.21,0003.66,0003.07
2023-11-11 17:18:00,SystemResetWarning,0831.5,5.00,000.00,024.1,023.3,000.0,032.3,025.5,10.3,0000.0,0011.34,0003.76,0003.16
2023-11-11 17:19:00,SystemResetWarning,0831.5,5.01,000.00,024.1,023.3,000.0,032.3,025.5,10.1,0000.0,0010.76,0003.86,0003.26
2023-11-11 17:20:00,SystemResetWarning,0831.5,5.00,000.00,024.1,023.3,000.0,032.3,025.5,10.2,0000.0,0010.93,0003.98,0003.36
2023-11-11 17:21:00,SystemResetWarning,0831.5,5.01,000.00,024.1,023.3,000.0,032.3,025.5,10.3,0000.0,0011.55,0004.09,0003.44
2023-11-11 17:22:00,SystemResetWarning,0831.4,5.00,000.00,024.1,023.3,000.0,032.3,025.5,10.2,0000.0,0011.64,0004.22,0003.53
2023-11-11 17:23:00,SystemResetWarning,0831.4,5.00,000.00,024.1,023.3,000.0,032.3,025.5,10.0,0000.0,0011.49,0004.30,0003.62
2023-11-11 17:24:00,SystemResetWarning,0831.4,4.99,000.00,024.1,023.3,000.0,032.3,025.5,10.0,0000.0,0011.85,0004.38,0003.70
2023-11-11 17:25:00,SystemResetWarning,0831.4,5.00,000.00,024.1,023.3,000.0,032.3,025.6,9.8,0000.0,0012.14,0004.51,0003.79
2023-11-11 17:26:00,SystemResetWarning,0831.4,5.00,000.00,024.1,023.4,000.0,032.3,025.6,9.8,0000.0,0010.80,0004.58,0003.85
2023-11-11 17:27:00,SystemResetWarning,0831.3,5.00,000.00,024.2,023.4,000.0,032.4,025.6,9.6,0000.0,0012.01,0004.64,0003.89
2023-11-11 17:28:00,SystemResetWarning,0831.3,4.99,000.00,024.2,023.4,000.0,032.4,025.6,9.5,0000.0,0012.10,0004.72,0003.93
2023-11-11 17:29:00,SystemResetWarning,0831.3,5.00,000.00,024.2,023.4,000.0,032.4,025.6,9.5,0000.0,0012.17,0004.74,0003.94
2023-11-11 17:30:00,SystemResetWarning,0831.3,5.01,000.00,024.2,023.4,000.0,032.4,025.6,8.9,0000.0,0012.20,0004.71,0003.93
2023-11-11 17:31:00,SystemResetWarning,0831.3,5.00,000.00,024.2,023.4,000.0,032.4,025.6,9.1,0000.0,0012.88,0004.70,0003.90
2023-11-11 17:32:00,SystemResetWarning,0831.3,5.00,000.00,024.2,023.4,000.0,032.4,025.6,8.5,0000.0,0013.23,0004.69,0003.88
2023-11-11 17:33:00,SystemResetWarning,0831.4,5.01,000.00,024.2,023.5,000.0,032.4,025.7,8.8,0000.0,0012.87,0004.62,0003.86
2023-11-11 17:34:00,SystemResetWarning,0831.3,5.00,000.00,024.2,023.5,000.0,032.4,025.7,8.9,0000.0,0012.64,0004.54,0003.80
2023-11-11 17:35:00,SystemResetWarning,0831.3,5.00,000.00,024.3,023.6,000.0,032.5,025.9,8.5,0000.0,0011.93,0004.47,0003.76
2023-11-11 17:36:00,SystemResetWarning,0831.3,5.00,000.00,024.3,023.6,000.0,032.5,025.9,8.5,0000.0,0011.39,0004.35,0003.68
2023-11-11 17:37:00,SystemResetWarning,0831.3,5.00,000.00,024.3,023.6,000.0,032.5,025.9,8.0,0000.0,0011.11,0004.27,0003.63
2023-11-11 17:38:00,SystemResetWarning,0831.3,4.99,000.00,024.3,023.7,000.0,032.5,025.9,8.2,0000.0,0009.82,0004.21,0003.58
2023-11-11 17:39:00,SystemResetWarning,0831.3,5.00,000.00,024.4,023.7,000.0,032.5,026.0,8.3,0000.0,0009.43,0004.10,0003.51
2023-11-11 17:40:00,SystemResetWarning,0831.3,5.00,000.00,024.4,023.7,000.0,032.5,026.0,8.8,0000.0,0009.23,0003.99,0003.44
2023-11-11 17:41:00,SystemResetWarning,0831.3,5.00,000.00,024.4,023.7,000.0,032.6,026.0,8.9,0000.0,0009.45,0003.89,0003.36
2023-11-11 17:42:00,SystemResetWarning,0831.3,5.00,000.00,024.4,023.8,000.0,032.6,026.0,9.1,0000.0,0009.05,0003.81,0003.29
2023-11-11 17:43:00,SystemResetWarning,0831.4,5.01,000.00,024.4,023.8,000.0,032.6,026.0,9.1,0000.0,0007.97,0003.73,0003.24
2023-11-11 17:44:00,SystemResetWarning,0831.5,5.00,000.00,024.5,023.8,000.0,032.6,026.0,9.0,0000.0,0007.74,0003.68,0003.19
2023-11-11 17:45:00,SystemResetWarning,0831.4,5.01,000.00,024.5,023.8,000.0,032.6,026.1,9.4,0000.0,0007.79,0003.69,0003.19
2023-11-11 17:46:00,SystemResetWarning,0831.3,5.00,000.00,024.5,023.8,000.0,032.6,026.1,9.1,0000.0,0007.73,0003.68,0003.19
2023-11-11 17:47:00,SystemResetWarning,0831.3,4.99,000.00,024.5,023.9,000.0,032.7,026.1,9.0,0000.0,0007.92,0003.70,0003.20
2023-11-11 17:48:00,SystemResetWarning,0831.3,4.99,000.00,024.6,023.9,000.0,032.7,026.1,7.8,0000.0,0008.08,0003.73,0003.21
2023-11-11 17:49:00,SystemResetWarning,0831.1,5.00,000.00,024.6,023.9,000.0,032.7,026.1,7.8,0000.0,0008.83,0003.73,0003.22
2023-11-11 17:50:00,SystemResetWarning,0831.3,5.01,000.00,024.6,023.9,000.0,032.7,026.1,8.5,0000.0,0009.13,0003.76,0003.23
2023-11-11 17:51:00,SystemResetWarning,0831.3,5.00,000.00,024.6,023.9,000.0,032.7,026.1,8.7,0000.0,0009.32,0003.80,0003.25
2023-11-11 17:52:00,SystemResetWarning,0831.3,5.00,000.00,024.6,023.9,000.0,032.8,026.2,8.6,0000.0,0009.46,0003.86,0003.26
2023-11-11 17:53:00,SystemResetWarning,0831.3,5.00,000.00,024.6,024.0,000.0,032.8,026.2,8.6,0000.0,0008.97,0003.86,0003.25
2023-11-11 17:54:00,SystemResetWarning,0831.4,5.00,000.00,024.7,024.0,000.0,032.8,026.3,8.6,0000.0,0009.18,0003.87,0003.26
2023-11-11 17:55:00,SystemResetWarning,0831.3,4.99,000.00,024.7,024.0,000.0,032.8,026.3,8.2,0000.0,0009.75,0003.94,0003.29
2023-11-11 17:56:00,SystemResetWarning,0831.3,5.00,000.00,024.7,024.0,000.0,032.8,026.3,7.0,0000.0,0009.85,0003.93,0003.28
2023-11-11 17:57:00,SystemResetWarning,0831.3,5.00,000.00,024.7,024.0,000.0,032.9,026.3,6.5,0000.0,0010.17,0003.92,0003.27
2023-11-11 17:58:00,SystemResetWarning,0831.3,4.99,000.00,024.7,024.0,000.0,032.9,026.2,6.2,0000.0,0010.27,0003.92,0003.24
2023-11-11 17:59:00,SystemResetWarning,0831.3,5.00,000.00,024.8,024.0,000.0,032.9,026.2,6.2,0000.0,0010.17,0003.93,0003.23
